Year,Month,Day,Hour,Minute,Value (Times are PST for temperature in C)
2010,06,30,00,00,9.20
2010,06,30,00,01,9.20
2010,06,30,00,02,9.20
2010,06,30,00,03,9.20
2010,06,30,00,04,9.10
2010,06,30,00,05,9.10
2010,06,30,00,06,9.00
2010,06,30,00,07,9.00
2010,06,30,00,08,9.00
2010,06,30,00,09,8.90
2010,06,30,00,10,8.90
2010,06,30,00,11,8.90
2010,06,30,00,12,8.80
2010,06,30,00,13,8.80
2010,06,30,00,14,8.70
2010,06,30,00,15,8.70
2010,06,30,00,16,8.70
2010,06,30,00,17,8.70
2010,06,30,00,18,8.70
2010,06,30,00,19,8.70
2010,06,30,00,20,8.70
2010,06,30,00,21,8.80
2010,06,30,00,22,8.80
2010,06,30,00,23,8.90
2010,06,30,00,24,9.00
2010,06,30,00,25,9.00
2010,06,30,00,26,9.00
2010,06,30,00,27,9.10
2010,06,30,00,28,9.10
2010,06,30,00,29,9.20
2010,06,30,00,30,9.20
2010,06,30,00,31,9.20
2010,06,30,00,32,9.20
2010,06,30,00,33,9.20
2010,06,30,00,34,9.20
2010,06,30,00,35,9.20
2010,06,30,00,36,9.20
2010,06,30,00,37,9.20
2010,06,30,00,38,9.20
2010,06,30,00,39,9.20
2010,06,30,00,40,9.20
2010,06,30,00,41,9.20
2010,06,30,00,42,9.20
2010,06,30,00,43,9.20
2010,06,30,00,44,9.20
2010,06,30,00,45,9.20
2010,06,30,00,46,9.20
2010,06,30,00,47,9.20
2010,06,30,00,48,9.20
2010,06,30,00,49,9.20
2010,06,30,00,50,9.20
2010,06,30,00,51,9.10
2010,06,30,00,52,9.10
2010,06,30,00,53,9.10
2010,06,30,00,54,9.10
2010,06,30,00,55,9.00
2010,06,30,00,56,9.00
2010,06,30,00,57,9.00
2010,06,30,00,58,9.00
2010,06,30,00,59,9.00
2010,06,30,01,00,9.00
2010,06,30,01,01,9.00
2010,06,30,01,02,9.00
2010,06,30,01,03,9.00
2010,06,30,01,04,9.10
2010,06,30,01,05,9.10
2010,06,30,01,06,9.10
2010,06,30,01,07,9.00
2010,06,30,01,08,9.00
2010,06,30,01,09,9.00
2010,06,30,01,10,9.00
2010,06,30,01,11,9.00
2010,06,30,01,12,8.90
2010,06,30,01,13,8.90
2010,06,30,01,14,8.90
2010,06,30,01,15,8.90
2010,06,30,01,16,8.90
2010,06,30,01,17,8.90
2010,06,30,01,18,8.90
2010,06,30,01,19,8.80
2010,06,30,01,20,8.90
2010,06,30,01,21,8.90
2010,06,30,01,22,8.90
2010,06,30,01,23,8.90
2010,06,30,01,24,8.90
2010,06,30,01,25,8.90
2010,06,30,01,26,9.00
2010,06,30,01,27,9.00
2010,06,30,01,28,8.90
2010,06,30,01,29,8.90
2010,06,30,01,30,8.90
2010,06,30,01,31,8.90
2010,06,30,01,32,8.90
2010,06,30,01,33,8.80
2010,06,30,01,34,8.80
2010,06,30,01,35,8.80
2010,06,30,01,36,8.80
2010,06,30,01,37,8.80
2010,06,30,01,38,8.80
2010,06,30,01,39,8.80
2010,06,30,01,40,8.70
2010,06,30,01,41,8.70
2010,06,30,01,42,8.70
2010,06,30,01,43,8.70
2010,06,30,01,44,8.70
2010,06,30,01,45,8.70
2010,06,30,01,46,8.70
2010,06,30,01,47,8.70
2010,06,30,01,48,8.70
2010,06,30,01,49,8.70
2010,06,30,01,50,8.80
2010,06,30,01,51,8.80
2010,06,30,01,52,8.80
2010,06,30,01,53,8.80
2010,06,30,01,54,8.80
2010,06,30,01,55,8.80
2010,06,30,01,56,8.80
2010,06,30,01,57,8.70
2010,06,30,01,58,8.70
2010,06,30,01,59,8.70
2010,06,30,02,00,8.70
2010,06,30,02,01,8.70
2010,06,30,02,02,8.60
2010,06,30,02,03,8.60
2010,06,30,02,04,8.50
2010,06,30,02,05,8.50
2010,06,30,02,06,8.40
2010,06,30,02,07,8.40
2010,06,30,02,08,8.40
2010,06,30,02,09,8.30
2010,06,30,02,10,8.30
2010,06,30,02,11,8.20
2010,06,30,02,12,8.20
2010,06,30,02,13,8.20
2010,06,30,02,14,8.20
2010,06,30,02,15,8.20
2010,06,30,02,16,8.20
2010,06,30,02,17,8.20
2010,06,30,02,18,8.10
2010,06,30,02,19,8.10
2010,06,30,02,20,8.10
2010,06,30,02,21,8.10
2010,06,30,02,22,8.00
2010,06,30,02,23,8.00
2010,06,30,02,24,8.00
2010,06,30,02,25,8.00
2010,06,30,02,26,8.00
2010,06,30,02,27,7.90
2010,06,30,02,28,7.90
2010,06,30,02,29,7.90
2010,06,30,02,30,7.90
2010,06,30,02,31,7.80
2010,06,30,02,32,7.80
2010,06,30,02,33,7.80
2010,06,30,02,34,7.80
2010,06,30,02,35,7.80
2010,06,30,02,36,7.80
2010,06,30,02,37,7.70
2010,06,30,02,38,7.70
2010,06,30,02,39,7.70
2010,06,30,02,40,7.70
2010,06,30,02,41,7.70
2010,06,30,02,42,7.70
2010,06,30,02,43,7.70
2010,06,30,02,44,7.70
2010,06,30,02,45,7.70
2010,06,30,02,46,7.70
2010,06,30,02,47,7.70
2010,06,30,02,48,7.70
2010,06,30,02,49,7.70
2010,06,30,02,50,7.70
2010,06,30,02,51,7.70
2010,06,30,02,52,7.70
2010,06,30,02,53,7.70
2010,06,30,02,54,7.70
2010,06,30,02,55,7.80
2010,06,30,02,56,7.80
2010,06,30,02,57,7.80
2010,06,30,02,58,7.80
2010,06,30,02,59,7.80
2010,06,30,03,00,7.80
2010,06,30,03,01,7.80
2010,06,30,03,02,7.90
2010,06,30,03,03,7.90
2010,06,30,03,04,8.00
2010,06,30,03,05,8.00
2010,06,30,03,06,8.00
2010,06,30,03,07,8.00
2010,06,30,03,08,8.00
2010,06,30,03,09,8.00
2010,06,30,03,10,8.00
2010,06,30,03,11,8.00
2010,06,30,03,12,8.00
2010,06,30,03,13,8.00
2010,06,30,03,14,8.00
2010,06,30,03,15,8.00
2010,06,30,03,16,8.00
2010,06,30,03,17,8.00
2010,06,30,03,18,8.00
2010,06,30,03,19,8.10
2010,06,30,03,20,8.10
2010,06,30,03,21,8.10
2010,06,30,03,22,8.10
2010,06,30,03,23,8.10
2010,06,30,03,24,8.10
2010,06,30,03,25,8.10
2010,06,30,03,26,8.10
2010,06,30,03,27,8.20
2010,06,30,03,28,8.20
2010,06,30,03,29,8.20
2010,06,30,03,30,8.20
2010,06,30,03,31,8.20
2010,06,30,03,32,8.20
2010,06,30,03,33,8.20
2010,06,30,03,34,8.20
2010,06,30,03,35,8.20
2010,06,30,03,36,8.20
2010,06,30,03,37,8.20
2010,06,30,03,38,8.20
2010,06,30,03,39,8.20
2010,06,30,03,40,8.20
2010,06,30,03,41,8.20
2010,06,30,03,42,8.20
2010,06,30,03,43,8.20
2010,06,30,03,44,8.20
2010,06,30,03,45,8.10
2010,06,30,03,46,8.10
2010,06,30,03,47,8.10
2010,06,30,03,48,8.10
2010,06,30,03,49,8.10
2010,06,30,03,50,8.10
2010,06,30,03,51,8.20
2010,06,30,03,52,8.20
2010,06,30,03,53,8.20
2010,06,30,03,54,8.20
2010,06,30,03,55,8.20
2010,06,30,03,56,8.20
2010,06,30,03,57,8.20
2010,06,30,03,58,8.20
2010,06,30,03,59,8.30
2010,06,30,04,00,8.30
2010,06,30,04,01,8.30
2010,06,30,04,02,8.30
2010,06,30,04,03,8.20
2010,06,30,04,04,8.20
2010,06,30,04,05,8.20
2010,06,30,04,06,8.20
2010,06,30,04,07,8.10
2010,06,30,04,08,8.10
2010,06,30,04,09,8.00
2010,06,30,04,10,8.00
2010,06,30,04,11,7.90
2010,06,30,04,12,7.90
2010,06,30,04,13,7.80
2010,06,30,04,14,7.80
2010,06,30,04,15,7.80
2010,06,30,04,16,7.80
2010,06,30,04,17,7.80
2010,06,30,04,18,7.80
2010,06,30,04,19,7.70
2010,06,30,04,20,7.70
2010,06,30,04,21,7.70
2010,06,30,04,22,7.70
2010,06,30,04,23,7.60
2010,06,30,04,24,7.60
2010,06,30,04,25,7.60
2010,06,30,04,26,7.50
2010,06,30,04,27,7.50
2010,06,30,04,28,7.50
2010,06,30,04,29,7.40
2010,06,30,04,30,7.40
2010,06,30,04,31,7.40
2010,06,30,04,32,7.30
2010,06,30,04,33,7.30
2010,06,30,04,34,7.30
2010,06,30,04,35,7.30
2010,06,30,04,36,7.20
2010,06,30,04,37,7.20
2010,06,30,04,38,7.20
2010,06,30,04,39,7.10
2010,06,30,04,40,7.10
2010,06,30,04,41,7.00
2010,06,30,04,42,7.00
2010,06,30,04,43,7.00
2010,06,30,04,44,6.90
2010,06,30,04,45,6.90
2010,06,30,04,46,6.90
2010,06,30,04,47,6.80
2010,06,30,04,48,6.80
2010,06,30,04,49,6.80
2010,06,30,04,50,6.80
2010,06,30,04,51,6.80
2010,06,30,04,52,6.80
2010,06,30,04,53,6.80
2010,06,30,04,54,6.70
2010,06,30,04,55,6.70
2010,06,30,04,56,6.70
2010,06,30,04,57,6.70
2010,06,30,04,58,6.60
2010,06,30,04,59,6.60
2010,06,30,05,00,6.60
2010,06,30,05,01,6.60
2010,06,30,05,02,6.60
2010,06,30,05,03,6.60
2010,06,30,05,04,6.60
2010,06,30,05,05,6.60
2010,06,30,05,06,6.60
2010,06,30,05,07,6.60
2010,06,30,05,08,6.60
2010,06,30,05,09,6.40
2010,06,30,05,10,6.40
2010,06,30,05,11,6.40
2010,06,30,05,12,6.40
2010,06,30,05,13,6.40
2010,06,30,05,14,6.40
2010,06,30,05,15,6.40
2010,06,30,05,16,6.40
2010,06,30,05,17,6.40
2010,06,30,05,18,6.40
2010,06,30,05,19,6.30
2010,06,30,05,20,6.30
2010,06,30,05,21,6.30
2010,06,30,05,22,6.30
2010,06,30,05,23,6.30
2010,06,30,05,24,6.30
2010,06,30,05,25,6.30
2010,06,30,05,26,6.30
2010,06,30,05,27,6.30
2010,06,30,05,28,6.30
2010,06,30,05,29,6.30
2010,06,30,05,30,6.20
2010,06,30,05,31,6.20
2010,06,30,05,32,6.20
2010,06,30,05,33,6.20
2010,06,30,05,34,6.20
2010,06,30,05,35,6.20
2010,06,30,05,36,6.20
2010,06,30,05,37,6.20
2010,06,30,05,38,6.20
2010,06,30,05,39,6.10
2010,06,30,05,40,6.10
2010,06,30,05,41,6.10
2010,06,30,05,42,6.00
2010,06,30,05,43,6.00
2010,06,30,05,44,6.00
2010,06,30,05,45,6.00
2010,06,30,05,46,6.00
2010,06,30,05,47,5.90
2010,06,30,05,48,5.90
2010,06,30,05,49,5.90
2010,06,30,05,50,5.90
2010,06,30,05,51,5.90
2010,06,30,05,52,5.90
2010,06,30,05,53,5.90
2010,06,30,05,54,5.90
2010,06,30,05,55,5.90
2010,06,30,05,56,5.90
2010,06,30,05,57,5.90
2010,06,30,05,58,5.90
2010,06,30,05,59,5.90
2010,06,30,06,00,5.90
2010,06,30,06,01,5.90
2010,06,30,06,02,5.90
2010,06,30,06,03,5.90
2010,06,30,06,04,5.90
2010,06,30,06,05,5.90
2010,06,30,06,06,5.90
2010,06,30,06,07,5.90
2010,06,30,06,08,5.90
2010,06,30,06,09,5.90
2010,06,30,06,10,5.90
2010,06,30,06,11,5.90
2010,06,30,06,12,5.90
2010,06,30,06,13,5.90
2010,06,30,06,14,5.90
2010,06,30,06,15,5.90
2010,06,30,06,16,5.90
2010,06,30,06,17,5.90
2010,06,30,06,18,6.00
2010,06,30,06,19,6.00
2010,06,30,06,20,6.00
2010,06,30,06,21,6.00
2010,06,30,06,22,6.00
2010,06,30,06,23,6.10
2010,06,30,06,24,6.20
2010,06,30,06,25,6.20
2010,06,30,06,26,6.20
2010,06,30,06,27,6.20
2010,06,30,06,28,6.20
2010,06,30,06,29,6.30
2010,06,30,06,30,6.30
2010,06,30,06,31,6.40
2010,06,30,06,32,6.40
2010,06,30,06,33,6.40
2010,06,30,06,34,6.40
2010,06,30,06,35,6.50
2010,06,30,06,36,6.60
2010,06,30,06,37,6.60
2010,06,30,06,38,6.60
2010,06,30,06,39,6.60
2010,06,30,06,40,6.70
2010,06,30,06,41,6.80
2010,06,30,06,42,6.80
2010,06,30,06,43,7.00
2010,06,30,06,44,7.00
2010,06,30,06,45,7.00
2010,06,30,06,46,7.10
2010,06,30,06,47,7.10
2010,06,30,06,48,7.20
2010,06,30,06,49,7.20
2010,06,30,06,50,7.20
2010,06,30,06,51,7.20
2010,06,30,06,52,7.20
2010,06,30,06,53,7.20
2010,06,30,06,54,7.30
2010,06,30,06,55,7.20
2010,06,30,06,56,7.20
2010,06,30,06,57,7.20
2010,06,30,06,58,7.30
2010,06,30,06,59,7.30
2010,06,30,07,00,7.30
2010,06,30,07,01,7.30
2010,06,30,07,02,7.30
2010,06,30,07,03,7.40
2010,06,30,07,04,7.50
2010,06,30,07,05,7.60
2010,06,30,07,06,7.60
2010,06,30,07,07,7.60
2010,06,30,07,08,7.70
2010,06,30,07,09,7.70
2010,06,30,07,10,7.80
2010,06,30,07,11,7.80
2010,06,30,07,12,7.90
2010,06,30,07,13,7.90
2010,06,30,07,14,8.00
2010,06,30,07,15,8.00
2010,06,30,07,16,8.10
2010,06,30,07,17,8.20
2010,06,30,07,18,8.30
2010,06,30,07,19,8.40
2010,06,30,07,20,8.50
2010,06,30,07,21,8.70
2010,06,30,07,22,8.70
2010,06,30,07,23,8.80
2010,06,30,07,24,8.90
2010,06,30,07,25,8.90
2010,06,30,07,26,9.00
2010,06,30,07,27,9.10
2010,06,30,07,28,9.20
2010,06,30,07,29,9.30
2010,06,30,07,30,9.50
2010,06,30,07,31,9.70
2010,06,30,07,32,9.80
2010,06,30,07,33,9.90
2010,06,30,07,34,10.10
2010,06,30,07,35,10.20
2010,06,30,07,36,10.30
2010,06,30,07,37,10.50
2010,06,30,07,38,10.60
2010,06,30,07,39,10.70
2010,06,30,07,40,10.80
2010,06,30,07,41,10.90
2010,06,30,07,42,10.90
2010,06,30,07,43,10.90
2010,06,30,07,44,11.10
2010,06,30,07,45,11.20
2010,06,30,07,46,11.30
2010,06,30,07,47,11.40
2010,06,30,07,48,11.40
2010,06,30,07,49,11.40
2010,06,30,07,50,11.60
2010,06,30,07,51,11.60
2010,06,30,07,52,11.60
2010,06,30,07,53,11.60
2010,06,30,07,54,11.60
2010,06,30,07,55,11.60
2010,06,30,07,56,11.70
2010,06,30,07,57,11.70
2010,06,30,07,58,11.80
2010,06,30,07,59,11.80
2010,06,30,08,00,11.80
2010,06,30,08,01,11.80
2010,06,30,08,02,11.80
2010,06,30,08,03,11.80
2010,06,30,08,04,11.80
2010,06,30,08,05,11.90
2010,06,30,08,06,11.90
2010,06,30,08,07,11.90
2010,06,30,08,08,12.00
2010,06,30,08,09,12.00
2010,06,30,08,10,12.00
2010,06,30,08,11,12.10
2010,06,30,08,12,12.10
2010,06,30,08,13,12.20
2010,06,30,08,14,12.20
2010,06,30,08,15,12.30
2010,06,30,08,16,12.30
2010,06,30,08,17,12.30
2010,06,30,08,18,12.30
2010,06,30,08,19,12.30
2010,06,30,08,20,12.30
2010,06,30,08,21,12.30
2010,06,30,08,22,12.30
2010,06,30,08,23,12.30
2010,06,30,08,24,12.30
2010,06,30,08,25,12.30
2010,06,30,08,26,12.40
2010,06,30,08,27,12.40
2010,06,30,08,28,12.50
2010,06,30,08,29,12.60
2010,06,30,08,30,12.60
2010,06,30,08,31,12.60
2010,06,30,08,32,12.50
2010,06,30,08,33,12.50
2010,06,30,08,34,12.50
2010,06,30,08,35,12.50
2010,06,30,08,36,12.40
2010,06,30,08,37,12.40
2010,06,30,08,38,12.40
2010,06,30,08,39,12.50
2010,06,30,08,40,12.60
2010,06,30,08,41,12.60
2010,06,30,08,42,12.70
2010,06,30,08,43,12.80
2010,06,30,08,44,12.80
2010,06,30,08,45,12.80
2010,06,30,08,46,12.90
2010,06,30,08,47,13.00
2010,06,30,08,48,13.10
2010,06,30,08,49,13.20
2010,06,30,08,50,13.20
2010,06,30,08,51,13.20
2010,06,30,08,52,13.20
2010,06,30,08,53,13.10
2010,06,30,08,54,13.10
2010,06,30,08,55,13.00
2010,06,30,08,56,13.00
2010,06,30,08,57,12.90
2010,06,30,08,58,12.90
2010,06,30,08,59,12.90
2010,06,30,09,00,13.00
2010,06,30,09,01,13.10
2010,06,30,09,02,13.10
2010,06,30,09,03,13.10
2010,06,30,09,04,13.10
2010,06,30,09,05,13.10
2010,06,30,09,06,13.10
2010,06,30,09,07,13.20
2010,06,30,09,08,13.20
2010,06,30,09,09,13.10
2010,06,30,09,10,13.10
2010,06,30,09,11,13.10
2010,06,30,09,12,13.00
2010,06,30,09,13,13.00
2010,06,30,09,14,13.00
2010,06,30,09,15,13.10
2010,06,30,09,16,13.20
2010,06,30,09,17,13.30
2010,06,30,09,18,13.40
2010,06,30,09,19,13.50
2010,06,30,09,20,13.60
2010,06,30,09,21,13.70
2010,06,30,09,22,13.70
2010,06,30,09,23,13.70
2010,06,30,09,24,13.70
2010,06,30,09,25,13.70
2010,06,30,09,26,13.70
2010,06,30,09,27,13.70
2010,06,30,09,28,13.60
2010,06,30,09,29,13.60
2010,06,30,09,30,13.60
2010,06,30,09,31,13.60
2010,06,30,09,32,13.60
2010,06,30,09,33,13.60
2010,06,30,09,34,13.60
2010,06,30,09,35,13.70
2010,06,30,09,36,13.70
2010,06,30,09,37,13.70
2010,06,30,09,38,13.70
2010,06,30,09,39,13.60
2010,06,30,09,40,13.60
2010,06,30,09,41,13.60
2010,06,30,09,42,13.60
2010,06,30,09,43,13.60
2010,06,30,09,44,13.60
2010,06,30,09,45,13.70
2010,06,30,09,46,13.80
2010,06,30,09,47,13.90
2010,06,30,09,48,13.90
2010,06,30,09,49,14.00
2010,06,30,09,50,14.00
2010,06,30,09,51,14.00
2010,06,30,09,52,14.00
2010,06,30,09,53,14.00
2010,06,30,09,54,13.90
2010,06,30,09,55,13.80
2010,06,30,09,56,13.80
2010,06,30,09,57,13.70
2010,06,30,09,58,13.60
2010,06,30,09,59,13.60
2010,06,30,10,00,13.60
2010,06,30,10,01,13.60
2010,06,30,10,02,13.60
2010,06,30,10,03,13.60
2010,06,30,10,04,13.60
2010,06,30,10,05,13.60
2010,06,30,10,06,13.60
2010,06,30,10,07,13.60
2010,06,30,10,08,13.60
2010,06,30,10,09,13.60
2010,06,30,10,10,13.60
2010,06,30,10,11,13.60
2010,06,30,10,12,13.50
2010,06,30,10,13,13.50
2010,06,30,10,14,13.50
2010,06,30,10,15,13.40
2010,06,30,10,16,13.40
2010,06,30,10,17,13.40
2010,06,30,10,18,13.40
2010,06,30,10,19,13.30
2010,06,30,10,20,13.30
2010,06,30,10,21,13.30
2010,06,30,10,22,13.30
2010,06,30,10,23,13.30
2010,06,30,10,24,13.30
2010,06,30,10,25,13.30
2010,06,30,10,26,13.30
2010,06,30,10,27,13.30
2010,06,30,10,28,13.30
2010,06,30,10,29,13.30
2010,06,30,10,30,13.30
2010,06,30,10,31,13.30
2010,06,30,10,32,13.30
2010,06,30,10,33,13.30
2010,06,30,10,34,13.40
2010,06,30,10,35,13.40
2010,06,30,10,36,13.50
2010,06,30,10,37,13.60
2010,06,30,10,38,13.70
2010,06,30,10,39,13.90
2010,06,30,10,40,14.00
2010,06,30,10,41,14.20
2010,06,30,10,42,14.40
2010,06,30,10,43,14.60
2010,06,30,10,44,14.80
2010,06,30,10,45,15.00
2010,06,30,10,46,15.20
2010,06,30,10,47,15.30
2010,06,30,10,48,15.30
2010,06,30,10,49,15.30
2010,06,30,10,50,15.30
2010,06,30,10,51,15.30
2010,06,30,10,52,15.30
2010,06,30,10,53,15.30
2010,06,30,10,54,15.30
2010,06,30,10,55,15.20
2010,06,30,10,56,15.00
2010,06,30,10,57,14.90
2010,06,30,10,58,14.80
2010,06,30,10,59,14.60
2010,06,30,11,00,14.50
2010,06,30,11,01,14.50
2010,06,30,11,02,14.40
2010,06,30,11,03,14.30
2010,06,30,11,04,14.30
2010,06,30,11,05,14.20
2010,06,30,11,06,14.10
2010,06,30,11,07,13.90
2010,06,30,11,08,13.80
2010,06,30,11,09,13.70
2010,06,30,11,10,13.60
2010,06,30,11,11,13.60
2010,06,30,11,12,13.60
2010,06,30,11,13,13.50
2010,06,30,11,14,13.50
2010,06,30,11,15,13.50
2010,06,30,11,16,13.50
2010,06,30,11,17,13.50
2010,06,30,11,18,13.50
2010,06,30,11,19,13.40
2010,06,30,11,20,13.40
2010,06,30,11,21,13.40
2010,06,30,11,22,13.30
2010,06,30,11,23,13.30
2010,06,30,11,24,13.30
2010,06,30,11,25,13.30
2010,06,30,11,26,13.30
2010,06,30,11,27,13.30
2010,06,30,11,28,13.30
2010,06,30,11,29,13.30
2010,06,30,11,30,13.30
2010,06,30,11,31,13.30
2010,06,30,11,32,13.30
2010,06,30,11,33,13.30
2010,06,30,11,34,13.30
2010,06,30,11,35,13.30
2010,06,30,11,36,13.30
2010,06,30,11,37,13.30
2010,06,30,11,38,13.30
2010,06,30,11,39,13.30
2010,06,30,11,40,13.40
2010,06,30,11,41,13.40
2010,06,30,11,42,13.50
2010,06,30,11,43,13.50
2010,06,30,11,44,13.50
2010,06,30,11,45,13.60
2010,06,30,11,46,13.60
2010,06,30,11,47,13.70
2010,06,30,11,48,13.70
2010,06,30,11,49,13.80
2010,06,30,11,50,13.90
2010,06,30,11,51,14.00
2010,06,30,11,52,14.10
2010,06,30,11,53,14.20
2010,06,30,11,54,14.30
2010,06,30,11,55,14.40
2010,06,30,11,56,14.40
2010,06,30,11,57,14.50
2010,06,30,11,58,14.60
2010,06,30,11,59,14.70
2010,06,30,12,00,14.70
2010,06,30,12,01,14.80
2010,06,30,12,02,14.80
2010,06,30,12,03,14.80
2010,06,30,12,04,14.90
2010,06,30,12,05,15.00
2010,06,30,12,06,15.10
2010,06,30,12,07,15.20
2010,06,30,12,08,15.30
2010,06,30,12,09,15.30
2010,06,30,12,10,15.40
2010,06,30,12,11,15.30
2010,06,30,12,12,15.30
2010,06,30,12,13,15.30
2010,06,30,12,14,15.30
2010,06,30,12,15,15.30
2010,06,30,12,16,15.30
2010,06,30,12,17,15.30
2010,06,30,12,18,15.30
2010,06,30,12,19,15.40
2010,06,30,12,20,15.30
2010,06,30,12,21,15.30
2010,06,30,12,22,15.20
2010,06,30,12,23,15.20
2010,06,30,12,24,15.10
2010,06,30,12,25,15.00
2010,06,30,12,26,14.90
2010,06,30,12,27,14.80
2010,06,30,12,28,14.80
2010,06,30,12,29,14.70
2010,06,30,12,30,14.70
2010,06,30,12,31,14.70
2010,06,30,12,32,14.60
2010,06,30,12,33,14.60
2010,06,30,12,34,14.60
2010,06,30,12,35,14.60
2010,06,30,12,36,14.60
2010,06,30,12,37,14.60
2010,06,30,12,38,14.60
2010,06,30,12,39,14.60
2010,06,30,12,40,14.50
2010,06,30,12,41,14.50
2010,06,30,12,42,14.50
2010,06,30,12,43,14.50
2010,06,30,12,44,14.40
2010,06,30,12,45,14.40
2010,06,30,12,46,14.40
2010,06,30,12,47,14.30
2010,06,30,12,48,14.30
2010,06,30,12,49,14.30
2010,06,30,12,50,14.20
2010,06,30,12,51,14.20
2010,06,30,12,52,14.20
2010,06,30,12,53,14.10
2010,06,30,12,54,14.00
2010,06,30,12,55,14.00
2010,06,30,12,56,14.00
2010,06,30,12,57,13.90
2010,06,30,12,58,13.90
2010,06,30,12,59,13.90
2010,06,30,13,00,13.90
2010,06,30,13,01,13.90
2010,06,30,13,02,13.90
2010,06,30,13,03,13.90
2010,06,30,13,04,13.90
2010,06,30,13,05,13.90
2010,06,30,13,06,13.90
2010,06,30,13,07,13.90
2010,06,30,13,08,13.90
2010,06,30,13,09,13.90
2010,06,30,13,10,13.90
2010,06,30,13,11,13.90
2010,06,30,13,12,13.90
2010,06,30,13,13,13.90
2010,06,30,13,14,13.90
2010,06,30,13,15,13.90
2010,06,30,13,16,14.00
2010,06,30,13,17,14.00
2010,06,30,13,18,14.00
2010,06,30,13,19,14.10
2010,06,30,13,20,14.20
2010,06,30,13,21,14.20
2010,06,30,13,22,14.20
2010,06,30,13,23,14.30
2010,06,30,13,24,14.40
2010,06,30,13,25,14.50
2010,06,30,13,26,14.60
2010,06,30,13,27,14.70
2010,06,30,13,28,14.80
2010,06,30,13,29,15.00
2010,06,30,13,30,15.10
2010,06,30,13,31,15.30
2010,06,30,13,32,15.30
2010,06,30,13,33,15.30
2010,06,30,13,34,15.40
2010,06,30,13,35,15.60
2010,06,30,13,36,15.80
2010,06,30,13,37,16.00
2010,06,30,13,38,16.10
2010,06,30,13,39,16.20
2010,06,30,13,40,16.20
2010,06,30,13,41,16.10
2010,06,30,13,42,16.00
2010,06,30,13,43,15.90
2010,06,30,13,44,15.80
2010,06,30,13,45,15.80
2010,06,30,13,46,15.90
2010,06,30,13,47,16.00
2010,06,30,13,48,16.10
2010,06,30,13,49,16.20
2010,06,30,13,50,16.20
2010,06,30,13,51,16.10
2010,06,30,13,52,16.10
2010,06,30,13,53,16.20
2010,06,30,13,54,16.30
2010,06,30,13,55,16.30
2010,06,30,13,56,16.40
2010,06,30,13,57,16.40
2010,06,30,13,58,16.40
2010,06,30,13,59,16.40
2010,06,30,14,00,16.40
2010,06,30,14,01,16.40
2010,06,30,14,02,16.40
2010,06,30,14,03,16.40
2010,06,30,14,04,16.30
2010,06,30,14,05,16.30
2010,06,30,14,06,16.30
2010,06,30,14,07,16.30
2010,06,30,14,08,16.30
2010,06,30,14,09,16.40
2010,06,30,14,10,16.40
2010,06,30,14,11,16.40
2010,06,30,14,12,16.40
2010,06,30,14,13,16.50
2010,06,30,14,14,16.60
2010,06,30,14,15,16.70
2010,06,30,14,16,16.70
2010,06,30,14,17,16.70
2010,06,30,14,18,16.70
2010,06,30,14,19,16.70
2010,06,30,14,20,16.70
2010,06,30,14,21,16.70
2010,06,30,14,22,16.70
2010,06,30,14,23,16.60
2010,06,30,14,24,16.50
2010,06,30,14,25,16.40
2010,06,30,14,26,16.40
2010,06,30,14,27,16.40
2010,06,30,14,28,16.40
2010,06,30,14,29,16.40
2010,06,30,14,30,16.40
2010,06,30,14,31,16.40
2010,06,30,14,32,16.40
2010,06,30,14,33,16.40
2010,06,30,14,34,16.50
2010,06,30,14,35,16.50
2010,06,30,14,36,16.40
2010,06,30,14,37,16.30
2010,06,30,14,38,16.20
2010,06,30,14,39,16.20
2010,06,30,14,40,16.20
2010,06,30,14,41,16.10
2010,06,30,14,42,16.10
2010,06,30,14,43,16.10
2010,06,30,14,44,16.10
2010,06,30,14,45,16.00
2010,06,30,14,46,15.90
2010,06,30,14,47,15.80
2010,06,30,14,48,15.80
2010,06,30,14,49,15.80
2010,06,30,14,50,15.80
2010,06,30,14,51,15.80
2010,06,30,14,52,15.80
2010,06,30,14,53,15.80
2010,06,30,14,54,15.80
2010,06,30,14,55,15.80
2010,06,30,14,56,15.80
2010,06,30,14,57,15.80
2010,06,30,14,58,15.70
2010,06,30,14,59,15.60
2010,06,30,15,00,15.50
2010,06,30,15,01,15.50
2010,06,30,15,02,15.40
2010,06,30,15,03,15.40
2010,06,30,15,04,15.50
2010,06,30,15,05,15.50
2010,06,30,15,06,15.50
2010,06,30,15,07,15.60
2010,06,30,15,08,15.60
2010,06,30,15,09,15.60
2010,06,30,15,10,15.60
2010,06,30,15,11,15.70
2010,06,30,15,12,15.60
2010,06,30,15,13,15.60
2010,06,30,15,14,15.60
2010,06,30,15,15,15.50
2010,06,30,15,16,15.50
2010,06,30,15,17,15.50
2010,06,30,15,18,15.50
2010,06,30,15,19,15.60
2010,06,30,15,20,15.60
2010,06,30,15,21,15.60
2010,06,30,15,22,15.60
2010,06,30,15,23,15.50
2010,06,30,15,24,15.50
2010,06,30,15,25,15.50
2010,06,30,15,26,15.60
2010,06,30,15,27,15.60
2010,06,30,15,28,15.60
2010,06,30,15,29,15.60
2010,06,30,15,30,15.60
2010,06,30,15,31,15.60
2010,06,30,15,32,15.60
2010,06,30,15,33,15.60
2010,06,30,15,34,15.60
2010,06,30,15,35,15.70
2010,06,30,15,36,15.70
2010,06,30,15,37,15.70
2010,06,30,15,38,15.70
2010,06,30,15,39,15.70
2010,06,30,15,40,15.60
2010,06,30,15,41,15.60
2010,06,30,15,42,15.60
2010,06,30,15,43,15.50
2010,06,30,15,44,15.40
2010,06,30,15,45,15.40
2010,06,30,15,46,15.30
2010,06,30,15,47,15.30
2010,06,30,15,48,15.30
2010,06,30,15,49,15.30
2010,06,30,15,50,15.30
2010,06,30,15,51,15.30
2010,06,30,15,52,15.30
2010,06,30,15,53,15.30
2010,06,30,15,54,15.30
2010,06,30,15,55,15.30
2010,06,30,15,56,15.30
2010,06,30,15,57,15.30
2010,06,30,15,58,15.20
2010,06,30,15,59,15.20
2010,06,30,16,00,15.20
2010,06,30,16,01,15.20
2010,06,30,16,02,15.20
2010,06,30,16,03,15.20
2010,06,30,16,04,15.10
2010,06,30,16,05,15.10
2010,06,30,16,06,15.10
2010,06,30,16,07,15.10
2010,06,30,16,08,15.00
2010,06,30,16,09,15.00
2010,06,30,16,10,15.00
2010,06,30,16,11,15.00
2010,06,30,16,12,15.00
2010,06,30,16,13,15.00
2010,06,30,16,14,15.00
2010,06,30,16,15,15.10
2010,06,30,16,16,15.10
2010,06,30,16,17,15.10
2010,06,30,16,18,15.10
2010,06,30,16,19,15.10
2010,06,30,16,20,15.10
2010,06,30,16,21,15.00
2010,06,30,16,22,15.00
2010,06,30,16,23,15.00
2010,06,30,16,24,15.00
2010,06,30,16,25,14.90
2010,06,30,16,26,14.90
2010,06,30,16,27,14.80
2010,06,30,16,28,14.80
2010,06,30,16,29,14.80
2010,06,30,16,30,14.80
2010,06,30,16,31,14.80
2010,06,30,16,32,14.80
2010,06,30,16,33,14.80
2010,06,30,16,34,14.80
2010,06,30,16,35,14.80
2010,06,30,16,36,14.80
2010,06,30,16,37,14.70
2010,06,30,16,38,14.70
2010,06,30,16,39,14.70
2010,06,30,16,40,14.80
2010,06,30,16,41,14.70
2010,06,30,16,42,14.70
2010,06,30,16,43,14.80
2010,06,30,16,44,14.80
2010,06,30,16,45,14.80
2010,06,30,16,46,14.70
2010,06,30,16,47,14.70
2010,06,30,16,48,14.70
2010,06,30,16,49,14.70
2010,06,30,16,50,14.70
2010,06,30,16,51,14.60
2010,06,30,16,52,14.60
2010,06,30,16,53,14.60
2010,06,30,16,54,14.60
2010,06,30,16,55,14.70
2010,06,30,16,56,14.70
2010,06,30,16,57,14.80
2010,06,30,16,58,14.80
2010,06,30,16,59,14.80
2010,06,30,17,00,14.80
2010,06,30,17,01,14.90
2010,06,30,17,02,15.00
2010,06,30,17,03,15.00
2010,06,30,17,04,15.00
2010,06,30,17,05,15.00
2010,06,30,17,06,15.00
2010,06,30,17,07,15.00
2010,06,30,17,08,14.90
2010,06,30,17,09,14.90
2010,06,30,17,10,14.80
2010,06,30,17,11,14.80
2010,06,30,17,12,14.80
2010,06,30,17,13,14.80
2010,06,30,17,14,14.80
2010,06,30,17,15,14.80
2010,06,30,17,16,14.80
2010,06,30,17,17,14.80
2010,06,30,17,18,14.80
2010,06,30,17,19,14.80
2010,06,30,17,20,14.80
2010,06,30,17,21,14.80
2010,06,30,17,22,14.80
2010,06,30,17,23,14.90
2010,06,30,17,24,14.90
2010,06,30,17,25,14.90
2010,06,30,17,26,14.90
2010,06,30,17,27,14.90
2010,06,30,17,28,14.90
2010,06,30,17,29,15.00
2010,06,30,17,30,14.90
2010,06,30,17,31,14.90
2010,06,30,17,32,14.90
2010,06,30,17,33,14.90
2010,06,30,17,34,14.80
2010,06,30,17,35,14.80
2010,06,30,17,36,14.80
2010,06,30,17,37,14.80
2010,06,30,17,38,14.80
2010,06,30,17,39,14.80